NQ2U-13 Weather Reports


Display with metric or nautical units.
time (UTC)temp
F
wind
direction
speed
MPH
gust
MPH
rain 1hr
in
rain 24hr
in
rain mn
in
humidity
%
barometer
mb
20260506222031 50 0 1.0 6.0 0.01 0.52 0.49 90 1007.0
20260506221547 50 50 2.0 6.0 0.02 0.52 0.49 90 1006.9
20260506221031 50 323 2.0 5.0 0.02 0.52 0.49 91 1006.8
20260506220531 51 260 0.0 3.0 0.02 0.52 0.49 92 1006.7
20260506220049 51 0 0.0 4.0 0.02 0.52 0.49 92 1006.5
20260506215530 51 0 1.0 4.0 0.02 0.52 0.49 92 1006.4
20260506215031 51 331 2.0 5.0 0.02 0.52 0.48 92 1006.3
20260506214539 51 63 1.0 5.0 0.02 0.52 0.48 92 1006.1
20260506214031 51 0 1.0 5.0 0.02 0.52 0.48 92 1006.0
20260506213531 51 0 0.0 5.0 0.02 0.52 0.48 92 1005.9
20260506213043 51 75 1.0 6.0 0.02 0.52 0.48 92 1005.7
20260506212532 51 0 1.0 6.0 0.02 0.52 0.48 92 1005.6
20260506212031 51 316 2.0 8.0 0.02 0.51 0.47 93 1005.4
20260506211548 51 229 1.0 8.0 0.02 0.51 0.47 93 1005.6
20260506211031 51 46 2.0 8.0 0.02 0.51 0.47 93 1005.5
20260506210530 51 177 1.0 7.0 0.02 0.51 0.47 93 1005.3
20260506210043 51 345 0.0 6.0 0.03 0.51 0.47 93 1005.3
20260506205531 51 27 1.0 6.0 0.03 0.51 0.47 93 1005.1
20260506205031 51 327 1.0 7.0 0.02 0.50 0.46 93 1005.0
20260506204548 52 94 2.0 9.0 0.02 0.50 0.46 92 1004.9
20260506204030 52 36 2.0 9.0 0.03 0.50 0.46 92 1004.8
20260506203533 52 290 4.0 9.0 0.03 0.50 0.46 92 1004.8
20260506203045 53 33 2.0 8.0 0.03 0.50 0.46 92 1004.6
20260506202532 53 42 2.0 8.0 0.02 0.49 0.45 92 1004.6
20260506202031 53 336 1.0 10.0 0.03 0.49 0.45 92 1004.5
20260506201545 53 29 3.0 10.0 0.03 0.49 0.45 92 1004.4
20260506201030 53 63 2.0 8.0 0.03 0.49 0.45 92 1004.3
20260506200530 54 100 2.0 6.0 0.04 0.49 0.45 92 1004.3
20260506200043 55 331 1.0 8.0 0.03 0.48 0.44 91 1004.1
20260506195530 56 305 1.0 8.0 0.03 0.48 0.44 91 1004.1
20260506195032 58 302 3.0 8.0 0.04 0.48 0.44 90 1003.9
20260506194539 61 0 0.0 0.0 0.04 0.48 0.44 94 1003.8
20260506194031 61 0 0.0 1.0 0.04 0.47 0.43 94 1003.9
20260506193530 61 0 0.0 1.0 0.04 0.47 0.43 94 1004.0
20260506193039 61 0 0.0 1.0 0.04 0.47 0.43 93 1004.0
20260506192530 61 0 0.0 0.0 0.05 0.47 0.43 92 1004.0
20260506192030 62 0 0.0 1.0 0.04 0.46 0.42 93 1003.9
20260506191535 62 0 0.0 1.0 0.05 0.46 0.42 92 1004.0
20260506191031 62 0 0.0 2.0 0.05 0.46 0.42 93 1004.0
20260506190531 62 0 0.0 2.0 0.05 0.45 0.41 93 1004.0
20260506190043 62 0 0.0 1.0 0.05 0.45 0.41 92 1004.1
20260506185531 62 0 0.0 1.0 0.05 0.45 0.41 93 1004.2
20260506185030 62 0 0.0 1.0 0.05 0.44 0.40 93 1004.1
20260506184544 62 143 0.0 2.0 0.05 0.44 0.40 93 1004.2
20260506184030 62 0 0.0 2.0 0.05 0.43 0.39 94 1004.2
20260506183531 62 0 0.0 0.0 0.05 0.43 0.39 94 1004.2
20260506183037 61 0 0.0 1.0 0.06 0.43 0.39 94 1004.3
20260506182530 61 0 0.0 1.0 0.05 0.42 0.38 95 1004.3
20260506182034 61 0 0.0 1.0 0.06 0.42 0.38 95 1004.3
20260506181539 60 0 0.0 3.0 0.05 0.41 0.37 95 1004.4
20260506181031 60 0 0.0 3.0 0.06 0.41 0.37 95 1004.5
20260506180534 60 0 0.0 3.0 0.05 0.40 0.36 95 1004.5
20260506180045 59 0 0.0 1.0 0.06 0.40 0.36 95 1004.6
20260506175532 59 0 0.0 1.0 0.05 0.39 0.35 95 1004.6
20260506175030 59 0 0.0 1.0 0.06 0.39 0.35 95 1004.6
20260506174554 59 0 0.0 0.0 0.06 0.39 0.35 95 1004.7
20260506174032 59 0 0.0 0.0 0.06 0.38 0.34 94 1004.6
20260506173529 59 0 0.0 0.0 0.06 0.38 0.34 95 1004.6
20260506173041 59 0 0.0 0.0 0.05 0.37 0.33 95 1004.6
20260506172530 59 0 0.0 0.0 0.06 0.37 0.33 95 1004.6
20260506172032 59 0 0.0 0.0 0.05 0.36 0.32 95 1004.6
20260506171537 59 0 0.0 0.0 0.06 0.36 0.32 95 1004.6
20260506171032 59 0 0.0 0.0 0.05 0.35 0.31 95 1004.7
20260506170530 59 0 0.0 0.0 0.06 0.35 0.31 95 1004.6
20260506170037 58 0 0.0 0.0 0.05 0.34 0.30 96 1004.7
20260506165531 58 0 0.0 0.0 0.05 0.34 0.30 95 1004.8
20260506165031 58 0 0.0 0.0 0.05 0.33 0.29 96 1004.7
20260506164539 57 0 0.0 0.0 0.05 0.33 0.29 95 1004.8
20260506164033 57 0 0.0 0.0 0.05 0.32 0.28 95 1004.9
20260506163532 57 0 0.0 0.0 0.05 0.32 0.28 95 1004.9
20260506163049 56 0 0.0 1.0 0.06 0.32 0.28 95 1005.0
20260506162531 56 0 0.0 1.0 0.05 0.31 0.27 95 1004.9
20260506162030 56 132 0.0 1.0 0.06 0.31 0.27 95 1004.9
20260506161546 57 0 0.0 1.0 0.05 0.30 0.26 95 1005.0
20260506161031 57 0 0.0 1.0 0.06 0.30 0.26 95 1005.0
20260506160531 57 0 0.0 0.0 0.05 0.29 0.25 95 1005.0
20260506160049 56 0 0.0 1.0 0.06 0.29 0.25 95 1005.0
20260506155531 56 0 0.0 1.0 0.06 0.29 0.25 95 1004.9
20260506155031 56 0 0.0 1.0 0.06 0.28 0.24 95 1005.0
20260506154541 56 0 0.0 1.0 0.06 0.28 0.24 95 1004.9
20260506154031 56 0 0.0 1.0 0.06 0.27 0.23 95 1005.1
20260506153530 56 0 0.0 0.0 0.06 0.27 0.23 95 1005.1
20260506153046 56 0 0.0 0.0 0.06 0.26 0.22 95 1005.2
20260506152530 56 0 0.0 0.0 0.06 0.26 0.22 95 1005.3
20260506152033 55 0 0.0 0.0 0.06 0.25 0.21 96 1005.4
20260506151543 54 0 0.0 0.0 0.06 0.25 0.21 95 1005.4
20260506151030 55 0 0.0 1.0 0.06 0.24 0.20 94 1005.5
20260506150530 55 0 0.0 1.0 0.06 0.24 0.20 95 1005.6
20260506150053 55 0 0.0 0.0 0.06 0.23 0.19 95 1005.7
20260506145533 54 0 0.0 0.0 0.06 0.23 0.19 95 1005.7
20260506145030 55 0 0.0 1.0 0.05 0.22 0.18 95 1005.8
20260506144558 54 0 0.0 1.0 0.06 0.22 0.18 95 1005.8
20260506144031 54 0 0.0 2.0 0.05 0.21 0.17 95 1005.7
20260506143531 54 202 0.0 2.0 0.05 0.21 0.17 95 1005.9
20260506143049 54 0 0.0 1.0 0.04 0.20 0.16 95 1006.1
20260506142530 54 0 0.0 1.0 0.04 0.20 0.16 95 1006.4
20260506142031 54 0 0.0 1.0 0.04 0.19 0.15 95 1006.4
20260506141545 54 0 0.0 0.0 0.04 0.19 0.15 95 1006.3
20260506141033 54 0 0.0 0.0 0.03 0.18 0.14 95 1006.4
20260506140530 54 0 0.0 0.0 0.04 0.18 0.14 95 1006.4
20260506140058 54 0 0.0 1.0 0.03 0.17 0.13 95 1006.5
20260506135530 54 0 0.0 1.0 0.03 0.17 0.13 95 1006.6
20260506135030 54 0 0.0 0.0 0.04 0.17 0.13 95 1006.7
20260506134544 54 0 0.0 0.0 0.03 0.16 0.12 95 1006.7
20260506134032 54 0 0.0 0.0 0.04 0.16 0.12 95 1006.4
20260506133530 53 0 0.0 0.0 0.04 0.16 0.12 95 1006.4
20260506133043 53 0 0.0 0.0 0.05 0.16 0.12 95 1006.3
20260506132531 53 0 0.0 0.0 0.05 0.16 0.12 95 1006.3
20260506132031 53 0 0.0 0.0 0.05 0.15 0.11 95 1006.3
20260506131547 53 0 0.0 0.0 0.05 0.15 0.11 95 1006.4
20260506131031 53 0 0.0 0.0 0.06 0.15 0.11 95 1006.2
20260506130531 53 0 0.0 0.0 0.05 0.14 0.10 95 1006.2
20260506130114 53 0 0.0 1.0 0.06 0.14 0.10 95 1006.2
20260506125530 53 0 0.0 1.0 0.06 0.14 0.10 95 1005.9
20260506125031 53 0 0.0 1.0 0.06 0.13 0.09 95 1006.0
20260506124538 53 0 0.0 1.0 0.07 0.13 0.09 95 1006.2
20260506124031 53 0 0.0 2.0 0.06 0.12 0.08 95 1006.3
20260506123531 53 0 0.0 2.0 0.07 0.12 0.08 95 1006.5
20260506123046 53 0 0.0 1.0 0.06 0.11 0.07 95 1006.6
20260506122530 53 0 0.0 1.0 0.06 0.11 0.07 95 1006.6
20260506122031 53 0 0.0 1.0 0.05 0.10 0.06 95 1006.6
20260506121550 52 0 0.0 1.0 0.05 0.10 0.06 95 1006.7
20260506121030 52 0 0.0 0.0 0.05 0.09 0.05 95 1006.9
20260506120531 52 0 0.0 0.0 0.05 0.09 0.05 95 1007.1
20260506120039 52 0 0.0 0.0 0.04 0.08 0.04 95 1007.2
20260506115531 52 0 0.0 0.0 0.03 0.07 0.03 95 1007.3
20260506115030 52 0 0.0 0.0 0.03 0.07 0.03 95 1007.3
20260506114538 52 0 0.0 0.0 0.02 0.06 0.02 95 1007.2
20260506114030 52 0 0.0 0.0 0.02 0.06 0.02 95 1007.3
20260506113530 52 0 0.0 0.0 0.01 0.05 0.01 95 1007.2
20260506113039 52 0 0.0 0.0 0.01 0.05 0.01 95 1007.1
20260506112530 52 0 0.0 0.0 0.01 0.05 0.01 95 1007.0
20260506112030 52 0 0.0 0.0 0.01 0.05 0.01 95 1007.0
20260506111538 52 0 0.0 0.0 0.01 0.05 0.01 95 1007.1
20260506111030 52 0 0.0 0.0 0.00 0.04 0.00 95 1007.0
20260506110531 52 0 0.0 0.0 0.00 0.04 0.00 95 1006.7
20260506110042 52 0 0.0 0.0 0.00 0.04 0.00 95 1006.7
20260506105531 52 0 0.0 0.0 0.00 0.04 0.00 95 1006.7
20260506105031 52 0 0.0 0.0 0.00 0.04 0.00 95 1006.9
20260506104538 52 0 0.0 0.0 0.00 0.04 0.00 95 1006.8
20260506104032 52 0 0.0 0.0 0.00 0.04 0.00 95 1006.9
20260506103530 52 0 0.0 0.0 0.00 0.04 0.00 95 1006.8
20260506103044 51 0 0.0 0.0 0.00 0.04 0.00 95 1006.8
20260506102531 51 0 0.0 0.0 0.00 0.04 0.00 95 1006.8
20260506102031 51 0 0.0 0.0 0.00 0.04 0.00 95 1006.8
20260506101544 51 0 0.0 0.0 0.00 0.04 0.00 95 1006.8
20260506101030 51 0 0.0 0.0 0.00 0.04 0.00 95 1006.8
20260506100530 51 0 0.0 0.0 0.00 0.04 0.00 95 1006.7
20260506100055 51 0 0.0 0.0 0.00 0.04 0.00 95 1006.6
20260506095530 51 0 0.0 0.0 0.00 0.14 0.00 95 1006.7
20260506095030 51 0 0.0 0.0 0.00 0.14 0.00 95 1006.7
20260506094541 51 0 0.0 0.0 0.00 0.14 0.00 95 1006.7
20260506094031 51 0 0.0 0.0 0.00 0.14 0.00 94 1006.7
20260506093531 51 0 0.0 0.0 0.00 0.14 0.00 94 1006.4
20260506093037 51 0 0.0 2.0 0.00 0.14 0.00 94 1006.5
20260506092531 51 0 0.0 2.0 0.00 0.14 0.00 94 1006.6
20260506092031 51 0 0.0 0.0 0.00 0.14 0.00 94 1006.6
20260506091543 51 0 0.0 0.0 0.00 0.14 0.00 94 1006.6
20260506091034 51 0 0.0 0.0 0.00 0.14 0.00 94 1006.6
20260506090531 51 0 0.0 0.0 0.00 0.14 0.00 94 1006.4
20260506090044 51 0 0.0 0.0 0.00 0.14 0.00 94 1006.5
20260506085530 51 0 0.0 0.0 0.00 0.14 0.00 94 1006.7
20260506085033 51 0 0.0 0.0 0.00 0.14 0.00 94 1006.9
20260506084546 52 0 0.0 0.0 0.00 0.14 0.00 94 1006.9
20260506084031 51 0 0.0 0.0 0.00 0.14 0.00 94 1007.0
20260506083532 51 0 0.0 0.0 0.00 0.14 0.00 94 1007.0
20260506083053 51 0 0.0 0.0 0.00 0.14 0.00 94 1007.1
20260506082531 51 0 0.0 0.0 0.00 0.14 0.00 94 1007.1
20260506082031 51 0 0.0 0.0 0.00 0.14 0.00 94 1007.2
20260506081601 51 0 0.0 0.0 0.00 0.14 0.00 94 1007.2
20260506081031 51 0 0.0 0.0 0.00 0.14 0.00 94 1007.3
20260506080531 51 0 0.0 0.0 0.00 0.14 0.00 93 1007.4
20260506073043 52 0 0.0 0.0 0.00 0.14 0.00 92 1007.6
20260506072532 52 0 0.0 0.0 0.00 0.14 0.00 92 1007.5
20260506072034 52 0 0.0 0.0 0.00 0.14 0.00 92 1007.6
20260506071543 52 0 0.0 0.0 0.00 0.14 0.00 92 1007.5
20260506071031 52 0 0.0 0.0 0.00 0.14 0.00 92 1007.6
20260506070531 52 0 0.0 1.0 0.00 0.14 0.00 92 1007.5
20260506062031 53 0 0.0 1.0 0.00 0.14 0.00 92 1008.1
20260506061547 53 0 0.0 0.0 0.00 0.14 0.00 92 1008.0
20260506061032 53 0 0.0 0.0 0.00 0.14 0.00 92 1008.0
20260506060531 53 0 0.0 0.0 0.00 0.14 0.00 92 1008.2
20260506051031 53 0 0.0 0.0 0.00 0.14 0.00 92 1008.6
20260506050531 53 0 0.0 0.0 0.00 0.14 0.00 92 1008.5
20260506045031 53 0 0.0 0.0 0.02 0.14 0.00 92 1008.7
20260506044549 53 0 0.0 0.0 0.04 0.14 0.00 91 1008.8
20260506044030 53 0 0.0 0.0 0.04 0.14 0.00 91 1008.8
20260506043530 53 0 0.0 0.0 0.04 0.14 0.00 91 1008.8
20260506043043 54 0 0.0 0.0 0.04 0.14 0.00 91 1008.8
20260506042532 54 0 0.0 0.0 0.04 0.14 0.00 90 1008.7
20260506042031 54 0 0.0 0.0 0.04 0.14 0.00 90 1008.7
20260506041542 54 0 0.0 0.0 0.04 0.14 0.00 89 1008.8
20260506041031 54 0 0.0 0.0 0.04 0.14 0.00 88 1008.8
20260506040533 55 0 0.0 0.0 0.04 0.14 0.00 88 1008.8
20260506040037 55 0 0.0 0.0 0.04 0.14 0.00 87 1008.8
20260506035531 55 0 0.0 0.0 0.03 0.13 0.13 85 1008.9
20260506035030 56 0 0.0 0.0 0.01 0.11 0.11 84 1008.8
20260506034602 56 0 0.0 0.0 0.00 0.10 0.10 82 1009.1
20260506034032 56 0 0.0 4.0 0.00 0.10 0.10 83 1008.7
20260506033553 56 0 0.0 4.0 0.00 0.10 0.10 82 1008.8
20260506033039 57 69 1.0 4.0 0.00 0.10 0.10 81 1008.9
20260506032531 57 328 1.0 4.0 0.00 0.10 0.10 80 1008.7
20260506032031 57 47 1.0 3.0 0.00 0.10 0.10 80 1008.5
20260506031547 57 0 0.0 8.0 0.00 0.10 0.10 79 1009.1
20260506031032 58 39 2.0 8.0 0.00 0.10 0.10 78 1008.8
20260506030531 58 21 2.0 7.0 0.00 0.10 0.10 78 1008.6
20260506030039 58 69 1.0 6.0 0.00 0.10 0.10 78 1008.7
20260506025530 58 2 1.0 6.0 0.00 0.10 0.10 78 1008.5
20260506025030 59 111 1.0 8.0 0.00 0.10 0.10 79 1008.4
20260506024536 59 7 1.0 8.0 0.00 0.10 0.10 79 1008.2
20260506024030 59 16 1.0 7.0 0.00 0.10 0.10 79 1008.1
20260506023531 60 80 2.0 8.0 0.00 0.10 0.10 79 1007.9
20260506023044 60 0 0.0 8.0 0.00 0.10 0.10 82 1008.2
20260506022531 60 46 1.0 6.0 0.00 0.10 0.10 85 1008.1
20260506022031 61 0 2.0 6.0 0.00 0.10 0.10 86 1008.1
20260506021539 61 0 0.0 0.0 0.00 0.10 0.10 86 1007.7
20260506021032 61 0 0.0 0.0 0.00 0.10 0.10 86 1007.7
20260506020530 61 0 0.0 0.0 0.00 0.10 0.10 85 1007.7
20260506020039 61 0 0.0 0.0 0.00 0.10 0.10 85 1007.7
20260506015531 61 0 0.0 1.0 0.00 0.10 0.10 85 1007.6
20260506015031 61 0 0.0 1.0 0.00 0.10 0.10 85 1007.4
20260506014545 61 0 0.0 1.0 0.00 0.10 0.10 84 1007.3
20260506014030 62 0 0.0 1.0 0.00 0.10 0.10 83 1007.3
20260506013530 62 0 0.0 1.0 0.00 0.10 0.10 82 1007.2
20260506013043 62 0 0.0 2.0 0.00 0.10 0.10 81 1007.2
20260506012531 62 0 0.0 2.0 0.00 0.10 0.10 82 1007.0
20260506012032 62 0 0.0 1.0 0.00 0.10 0.10 81 1006.9
20260506011544 62 0 0.0 1.0 0.00 0.10 0.10 80 1006.8
20260506011030 62 0 0.0 1.0 0.00 0.10 0.10 80 1006.8
20260506010531 63 0 0.0 0.0 0.00 0.10 0.10 81 1006.7
20260506010052 63 0 0.0 2.0 0.00 0.10 0.10 80 1006.7
20260506005530 63 0 0.0 2.0 0.00 0.10 0.10 80 1006.7
20260506005030 63 0 0.0 2.0 0.00 0.10 0.10 79 1006.8
20260506004544 63 0 0.0 0.0 0.00 0.10 0.10 78 1006.9
20260506004031 63 0 0.0 0.0 0.00 0.10 0.10 79 1006.7
20260506003530 64 0 0.0 0.0 0.00 0.10 0.10 77 1006.6
20260506003035 64 0 0.0 0.0 0.00 0.10 0.10 77 1006.5
20260506002533 64 0 0.0 0.0 0.00 0.10 0.10 77 1006.4
20260506002031 64 0 0.0 0.0 0.00 0.10 0.10 78 1006.4
20260506001546 64 0 0.0 2.0 0.00 0.10 0.10 76 1006.5
20260506001031 65 0 0.0 2.0 0.00 0.10 0.10 74 1006.4
20260506000531 65 0 0.0 2.0 0.00 0.10 0.10 73 1006.5
20260506000039 66 0 0.0 3.0 0.00 0.10 0.10 70 1006.8
20260505235531 66 192 0.0 3.0 0.00 0.10 0.10 69 1006.6
20260505235033 66 0 0.0 3.0 0.00 0.10 0.10 69 1006.1
20260505234536 66 0 0.0 2.0 0.00 0.10 0.10 68 1006.1
20260505234031 66 0 0.0 2.0 0.00 0.10 0.10 68 1006.0
20260505233530 66 178 0.0 4.0 0.00 0.10 0.10 67 1005.9
20260505233045 66 0 0.0 4.0 0.00 0.10 0.10 67 1005.9
20260505232530 66 0 0.0 3.0 0.00 0.10 0.10 67 1005.9
20260505232030 67 0 0.0 4.0 0.00 0.10 0.10 67 1005.8
20260505231545 67 0 0.0 4.0 0.00 0.10 0.10 67 1005.8
20260505231031 67 134 0.0 3.0 0.00 0.10 0.10 66 1005.7
20260505230530 67 0 0.0 3.0 0.00 0.10 0.10 66 1005.5
20260505230046 67 0 0.0 2.0 0.00 0.10 0.10 65 1005.7
20260505225531 68 0 0.0 2.0 0.00 0.10 0.10 65 1005.6
20260505225031 68 0 0.0 4.0 0.00 0.10 0.10 64 1005.4
20260505224542 69 0 0.0 4.0 0.00 0.10 0.10 64 1005.4
20260505224030 69 220 0.0 5.0 0.00 0.10 0.10 64 1005.3
20260505223532 68 0 0.0 5.0 0.00 0.10 0.10 64 1005.4
20260505223044 67 0 0.0 5.0 0.00 0.10 0.10 66 1005.4
20260505222532 67 146 1.0 8.0 0.00 0.10 0.10 67 1005.5